RH
2 1 2 2 4 6 5 4 4 4 5 5 6 7 6 6 6 6 5 5 5 4 5 4 5 5 5 5 5 5 6 6 7 7 7 7 5 5 5 9 22 43 58 64 69 70 68 66 65 58 56 63 60 57 59 60 56 45 36 33 32 34 36 40 43 45 50 52 49 45 46 49 50 52 56 58 56 53 52 50 52 59 63 63 60
5 4 6 7 7 9 5 4 5 4 6 7 7 8 7 8 7 7 7 6 6 6 6 6 6 6 6 6 5 5 6 6 7 7 7 6 6 5 5 6 8 17 31 44 56 68 69 64 64 63 62 68 65 59 61 60 58 51 41 35 33 33 35 36 38 42 46 51 52 48 46 46 49 51 54 58 59 55 53 52 51 55 62 65 62
11 12 14 12 8 8 7 7 8 6 7 7 8 9 8 8 8 8 8 8 8 8 8 8 8 8 8 8 7 7 7 7 8 7 8 7 7 7 6 8 8 10 12 18 28 40 61 70 65 64 66 69 68 64 65 67 63 55 47 41 36 34 36 36 36 38 42 48 51 50 49 48 49 50 52 55 59 58 54 52 51 52 58 65 66
15 13 13 14 12 10 9 10 12 10 9 9 9 10 9 9 9 9 9 9 9 9 10 9 10 10 10 10 9 10 9 9 9 9 9 8 8 8 8 9 9 11 8 9 10 13 49 81 71 65 71 73 75 72 71 75 71 64 56 49 44 38 36 37 36 36 39 45 50 52 51 51 52 52 53 53 56 58 56 53 51 52 55 62 67
18 13 13 17 13 9 8 10 12 10 10 10 10 10 10 10 9 10 9 9 9 9 10 10 11 12 12 12 11 12 11 11 11 10 10 9 9 8 8 10 9 11 9 8 8 5 33 61 53 50 63 73 79 80 79 77 76 77 70 59 55 48 38 35 37 37 37 42 49 56 56 54 55 55 56 55 56 58 58 56 53 52 54 60 67
21 21 21 17 11 12 11 9 11 11 11 11 11 10 10 10 9 10 9 9 10 9 10 10 11 12 12 13 13 13 13 12 12 11 11 9 9 10 9 10 10 10 9 8 8 7 13 26 27 29 42 55 65 77 85 81 79 84 80 72 70 63 50 39 37 38 37 38 44 54 61 61 60 60 60 60 59 59 60 60 59 56 54 57 66
22 27 25 16 13 18 13 10 11 10 11 13 11 10 10 10 9 10 9 9 10 9 10 10 11 12 12 13 13 13 13 13 13 12 12 11 10 10 10 11 11 10 10 9 8 9 8 10 14 18 26 31 37 53 73 80 81 84 84 81 78 74 69 56 42 37 36 37 38 44 55 63 65 64 65 66 65 63 63 63 63 63 59 56 62
23 29 26 16 14 15 11 11 12 9 10 11 11 10 10 10 9 9 9 9 9 9 10 11 12 13 13 13 13 13 13 13 13 12 12 12 11 11 11 11 11 11 12 12 11 11 11 10 10 12 15 16 16 24 46 72 81 80 83 87 84 80 81 75 60 46 38 34 33 35 43 52 61 65 67 69 70 69 66 64 64 65 66 62 61
21 22 17 14 14 12 11 11 10 11 11 8 10 10 9 9 9 9 9 9 9 9 10 11 13 14 14 14 14 13 14 13 13 13 13 12 11 11 12 12 12 12 12 13 13 13 13 12 11 10 9 10 11 11 24 55 76 77 77 82 86 86 83 79 71 57 43 34 29 29 32 37 47 57 64 69 72 73 71 67 64 64 67 68 65
14 14 10 11 13 11 10 9 8 11 11 8 8 8 8 8 8 9 9 9 9 9 10 12 13 15 15 15 15 15 15 14 13 13 13 13 12 12 12 12 12 13 13 13 13 14 14 13 11 10 10 8 9 8 11 29 54 70 74 73 76 83 86 82 76 65 51 40 31 26 26 31 39 43 49 60 68 72 73 72 67 63 64 67 68
11 12 9 9 10 9 8 8 7 8 9 8 8 7 7 7 7 8 8 9 9 9 10 12 14 15 16 16 15 16 15 15 14 13 13 13 13 12 12 12 12 13 14 14 14 13 13 14 12 11 12 12 8 8 7 9 22 40 55 61 65 72 80 83 81 75 61 46 37 32 27 33 44 43 38 44 54 62 68 71 71 67 62 62 65
15 14 10 8 9 8 7 9 8 7 8 8 8 8 7 6 7 7 8 8 8 9 10 11 13 15 16 16 14 15 15 15 14 14 13 13 13 13 12 12 13 13 14 14 14 14 14 13 14 12 12 13 10 8 8 8 8 14 23 35 46 57 66 73 80 83 74 56 42 39 34 32 41 47 45 43 43 47 53 57 62 65 64 60 59
16 14 9 7 8 7 7 9 9 8 8 7 7 8 10 8 6 6 7 8 8 9 10 11 13 15 16 16 14 14 15 15 14 14 14 14 14 13 13 14 13 13 13 14 14 14 15 14 14 14 13 12 11 9 9 9 9 10 11 15 24 38 50 60 70 79 81 69 52 45 42 36 34 41 48 48 43 42 45 47 48 51 56 58 56
10 9 8 7 7 7 7 7 7 7 7 7 7 9 13 11 6 6 7 8 8 9 10 11 13 14 15 16 16 16 15 15 14 15 15 14 15 15 15 15 15 14 13 13 14 14 15 15 15 15 14 13 12 11 10 8 7 7 9 11 14 22 34 45 56 68 78 78 69 59 54 44 35 39 46 47 43 43 48 50 47 44 44 47 50
7 7 6 6 6 6 6 6 6 6 6 7 5 7 14 12 6 6 7 8 9 9 11 12 13 14 15 16 16 16 16 16 16 15 16 16 16 16 16 15 15 15 15 14 14 14 14 15 15 15 15 14 13 11 10 8 8 7 8 9 10 13 19 27 39 55 69 79 80 75 70 58 42 41 50 51 42 38 45 53 52 47 42 40 41
6 5 5 6 7 7 7 6 5 6 6 7 6 6 11 11 6 6 8 9 9 11 12 13 14 15 16 16 16 15 15 16 15 15 17 18 18 17 17 16 15 15 15 15 14 14 14 14 15 15 15 14 13 12 11 10 9 9 9 8 9 10 12 16 22 33 48 63 75 81 82 75 58 50 54 56 45 34 38 49 52 50 45 42 39
5 7 9 10 9 7 8 7 5 6 6 7 6 5 7 9 7 6 8 9 10 12 13 14 15 16 18 17 17 16 15 15 14 14 16 17 18 19 18 17 17 16 15 15 15 14 14 14 14 15 15 15 14 13 12 11 10 10 10 10 9 9 9 11 13 17 24 34 51 70 83 83 72 64 62 59 48 36 36 43 47 46 44 43 42
9 11 13 12 10 8 8 9 6 6 6 7 7 5 5 8 7 6 8 10 11 12 13 15 16 17 18 18 17 16 15 15 14 14 14 15 16 17 18 18 17 17 16 15 15 15 14 14 14 14 14 14 14 14 13 12 12 11 11 10 10 10 10 9 10 11 14 18 25 43 67 81 80 74 71 65 52 41 40 44 45 44 39 37 41
9 10 10 10 8 8 10 10 7 7 7 7 7 6 4 7 8 7 8 10 11 12 13 14 15 16 17 17 17 16 15 14 14 13 14 15 16 16 17 18 18 18 17 17 16 16 14 13 13 13 13 13 14 14 14 13 13 12 12 11 11 11 11 10 10 10 11 13 14 19 35 58 76 79 75 69 59 51 50 50 52 53 45 34 34
9 9 9 9 9 11 12 10 8 8 8 8 8 6 4 7 9 7 9 10 11 12 13 14 15 15 16 16 15 15 15 14 13 13 13 14 15 16 17 17 18 18 17 17 16 15 14 13 13 13 12 12 13 13 14 14 14 13 13 12 12 12 12 12 11 11 10 10 12 13 14 24 44 64 74 74 66 60 60 58 56 58 56 45 36
15 14 13 13 13 13 11 10 9 9 9 9 9 6 4 8 10 9 9 10 11 12 13 14 14 14 15 15 15 14 14 14 14 13 13 14 15 15 16 16 15 16 15 15 14 14 14 13 13 13 12 10 10 11 13 14 14 15 14 14 14 13 14 13 12 11 11 10 10 12 13 12 17 31 50 68 73 68 65 64 58 55 57 56 48
20 19 18 16 15 13 11 10 9 10 10 9 9 7 5 8 11 10 9 10 11 12 13 13 14 14 14 14 15 14 14 14 14 13 13 14 16 15 15 16 16 15 15 15 15 15 14 13 13 12 10 7 6 7 10 13 15 15 15 15 15 15 15 15 14 12 11 11 10 10 11 12 13 15 22 41 64 74 74 70 62 55 54 55 55
21 21 19 17 15 14 13 12 11 9 9 8 9 7 6 9 12 11 9 10 11 12 13 13 13 13 13 14 14 13 14 14 14 13 13 14 16 15 14 15 16 15 14 14 14 15 14 12 10 8 6 5 4 4 6 10 13 15 16 16 17 16 16 15 15 14 13 11 11 10 10 11 12 14 14 19 36 58 72 74 67 58 55 55 55
23 22 21 21 20 18 14 12 11 10 9 8 8 8 7 10 13 13 11 10 11 12 13 14 13 13 13 13 13 13 13 14 14 14 14 15 15 14 14 14 14 13 11 10 10 10 10 9 7 5 5 4 4 4 4 6 10 13 15 17 18 18 18 18 16 14 14 13 12 11 10 10 11 12 14 15 17 29 48 64 69 64 59 57 57
33 31 30 29 30 29 24 17 11 10 10 9 8 9 9 11 15 15 14 12 12 12 13 14 14 13 13 13 13 14 13 14 15 15 15 16 15 15 15 14 14 12 9 7 6 5 5 6 6 5 5 5 5 5 4 5 6 9 12 15 17 18 19 19 19 17 15 14 13 12 10 10 10 11 13 15 15 16 23 37 52 60 62 61 60
42 43 45 46 46 45 44 39 27 16 11 10 11 11 11 13 16 18 17 15 13 13 14 14 14 13 14 14 13 13 14 14 15 16 16 16 16 16 17 16 14 12 9 7 6 5 5 5 5 5 5 5 5 5 5 5 5 7 9 11 14 17 18 19 19 19 18 15 13 13 12 10 9 9 11 13 14 14 14 18 27 39 50 60 64
47 48 50 55 57 58 61 60 50 34 20 15 14 14 14 15 17 18 19 19 17 15 14 14 14 14 13 14 14 14 15 16 16 17 18 18 18 18 18 18 16 13 10 8 7 5 5 5 6 6 6 6 5 5 5 5 5 6 7 10 12 14 16 17 18 18 18 17 15 13 13 12 11 8 8 10 12 13 13 13 15 20 30 44 58
60 58 50 43 40 45 53 57 56 49 35 26 21 18 16 15 15 16 17 20 22 19 17 14 14 15 15 14 14 15 16 17 17 18 19 20 20 19 17 16 15 14 11 9 7 6 6 6 6 6 6 6 6 5 5 5 5 6 7 8 10 12 14 16 17 17 17 16 16 15 14 13 13 11 7 6 8 10 12 12 13 15 18 26 41
68 73 61 39 20 19 35 48 55 54 46 37 32 28 22 13 9 10 12 16 22 23 20 17 15 15 16 15 15 16 18 19 18 18 18 20 20 19 16 14 12 11 9 8 7 6 6 6 6 6 6 6 6 5 5 5 5 5 6 7 9 10 12 13 15 17 19 19 19 18 17 15 14 13 10 7 5 6 7 9 11 12 14 19 26
77 83 66 42 23 19 34 54 61 59 53 45 42 42 35 19 6 5 8 11 16 22 22 20 17 17 18 17 16 17 19 19 18 17 18 19 19 17 15 13 10 9 7 7 7 6 6 7 7 7 6 5 6 6 5 5 5 5 6 6 7 8 9 11 13 13 15 18 21 22 21 20 17 14 12 9 7 6 6 7 8 9 12 15 20
84 87 74 61 52 43 48 61 63 58 56 52 49 52 50 34 14 6 9 11 11 15 20 20 19 19 20 18 18 19 20 20 18 18 18 18 17 15 14 12 9 8 8 7 7 8 7 8 7 7 6 5 5 5 5 5 5 5 6 6 6 7 8 10 12 13 13 13 15 18 19 21 20 18 15 12 9 8 8 8 8 8 9 11 15
94 97 93 92 88 76 68 72 68 59 57 56 53 56 60 56 39 19 12 16 18 17 17 19 21 23 22 20 20 21 21 21 19 18 18 17 16 14 12 11 9 8 9 8 8 9 9 8 8 7 6 6 6 5 5 6 5 5 5 6 6 6 8 10 12 14 14 13 12 12 14 17 20 20 19 16 12 10 10 10 10 10 8 8 10
100 98 96 98 100 93 84 84 82 72 67 67 66 66 64 64 62 47 29 22 25 30 30 25 22 24 24 22 21 23 23 23 21 19 19 17 16 15 12 10 9 8 9 10 10 10 10 9 8 7 7 6 6 6 6 6 6 6 6 6 7 8 8 10 12 13 14 15 14 12 11 12 15 19 20 19 16 13 12 11 11 11 10 9 8
97 90 86 92 100 99 93 94 94 87 81 80 82 84 78 69 66 64 56 43 38 47 54 48 33 23 23 23 23 25 25 25 23 21 20 19 18 17 14 10 9 9 9 10 11 10 10 9 8 8 7 6 6 6 6 6 6 6 6 6 7 8 9 10 12 13 15 16 15 14 12 11 11 14 18 19 19 17 15 14 14 14 14 12 10
99 92 87 93 99 100 100 101 99 97 94 89 89 93 92 83 69 64 69 70 66 67 69 65 49 30 23 24 24 25 27 27 26 24 22 21 19 16 13 10 10 10 10 11 11 11 10 9 8 7 6 6 5 5 5 6 6 6 6 7 8 8 9 9 10 12 14 16 17 15 14 13 12 12 13 16 18 18 17 17 17 18 18 17 15
101 94 90 95 96 94 96 99 101 101 100 97 94 91 89 84 70 60 67 75 79 78 69 65 59 39 24 24 26 27 29 29 28 27 24 21 18 14 12 11 10 11 11 11 11 11 10 9 7 6 6 6 5 5 5 5 6 6 6 7 8 8 8 8 9 10 11 13 15 15 14 13 13 12 12 13 14 16 16 15 16 17 17 17 16
97 90 91 96 95 92 90 93 99 101 100 98 94 84 81 81 72 63 64 67 70 71 62 59 63 48 25 23 29 28 30 32 30 29 25 21 18 15 13 14 15 14 13 13 12 11 10 9 7 6 6 5 5 4 5 5 5 6 7 7 8 8 9 9 9 10 11 12 13 13 13 12 12 14 16 17 17 16 15 14 13 13 14 15 15
88 87 91 92 92 91 86 85 90 90 88 87 80 70 69 77 80 76 70 64 65 69 62 55 65 60 35 24 29 29 30 35 34 30 26 26 26 22 21 25 24 20 17 15 14 13 11 10 9 7 7 6 5 5 4 5 5 5 7 9 10 9 9 10 11 12 12 13 13 13 15 18 22 24 24 24 22 20 18 16 13 11 11 12 13
81 81 83 84 85 83 79 78 77 73 73 74 69 64 63 68 79 87 87 79 73 75 71 61 67 72 52 31 28 30 31 36 36 33 32 35 36 30 30 35 31 25 21 18 17 16 14 13 11 9 8 7 6 6 5 5 4 6 10 12 11 10 8 10 11 11 14 19 20 22 25 28 31 33 34 32 29 27 25 21 18 14 10 10 10
80 75 70 74 80 79 74 75 75 72 76 78 69 63 63 66 73 86 97 97 88 83 80 73 73 81 70 47 33 30 32 38 40 38 37 42 44 39 39 40 35 29 26 22 20 19 17 16 14 11 9 9 9 8 6 6 5 10 16 13 9 8 9 10 10 14 24 33 32 30 31 31 32 34 35 35 33 32 30 28 27 23 15 10 9
67 64 56 52 51 52 55 61 63 59 60 62 56 52 58 66 72 82 95 102 98 94 90 84 84 90 83 65 49 39 36 40 43 44 47 51 53 51 49 45 38 31 28 27 25 22 20 18 15 12 9 9 11 11 8 6 7 12 16 11 7 9 8 9 18 29 35 36 33 30 31 33 32 31 32 32 30 29 29 30 32 32 25 15 9
50 49 50 41 26 26 38 44 39 33 32 37 39 44 55 63 68 77 92 100 99 100 97 89 92 98 90 76 69 63 54 49 50 50 50 53 57 58 55 47 40 35 31 30 27 25 23 19 14 12 10 11 13 12 9 8 8 9 11 9 8 9 10 15 29 40 37 30 29 29 28 28 27 26 26 26 24 23 24 25 28 31 32 24 13
55 49 51 46 28 21 29 32 25 22 28 34 36 42 52 60 64 74 91 100 99 100 100 94 96 100 96 89 89 89 80 72 69 63 56 56 59 58 54 50 46 40 35 31 28 26 22 17 13 12 11 12 14 12 10 9 9 9 10 10 9 11 19 28 35 37 33 29 28 25 22 23 27 30 31 28 25 23 20 19 20 22 27 27 20
76 65 56 49 38 25 20 22 21 19 26 34 38 42 51 60 66 76 93 101 99 98 99 99 99 100 99 98 98 98 91 84 82 77 70 70 67 59 53 51 46 39 34 31 28 24 19 14 13 13 12 14 14 11 10 10 10 11 11 11 13 18 28 35 34 34 33 31 26 21 22 31 39 41 40 38 37 33 24 17 16 16 17 20 21
81 82 71 58 53 39 23 19 19 17 22 31 39 45 52 59 66 77 91 97 97 98 98 98 99 98 100 101 99 98 95 87 83 77 71 74 74 66 58 52 45 38 34 30 25 20 16 13 12 12 13 15 13 10 11 11 11 12 11 12 20 29 34 36 36 35 33 29 23 20 25 35 39 36 36 42 47 43 32 21 15 13 13 14 16
75 87 84 72 66 52 30 18 17 17 22 29 38 45 48 51 59 71 83 90 96 99 98 99 101 100 98 97 94 94 93 87 79 74 73 75 74 68 61 53 44 37 32 27 23 19 16 14 12 12 14 15 12 10 11 12 12 11 10 14 26 34 37 39 38 35 30 25 20 20 25 29 31 31 38 51 56 49 38 30 20 13 11 11 11
78 81 78 73 71 60 36 18 18 25 29 34 45 50 45 44 53 65 76 86 93 98 100 99 98 94 90 88 87 86 84 81 80 79 78 74 64 57 55 49 42 36 30 25 23 21 17 14 12 14 15 15 13 11 12 13 12 10 11 19 30 34 36 38 37 33 27 21 18 20 23 24 28 36 47 60 68 60 48 38 28 19 12 9 8
85 81 74 67 66 61 38 18 21 33 41 48 56 57 49 47 52 59 68 77 83 90 94 90 85 85 87 89 89 88 84 86 92 89 77 63 52 48 49 45 40 36 31 26 24 21 19 18 17 16 16 15 13 12 13 13 11 8 13 25 34 34 33 33 31 28 22 17 18 21 21 24 33 43 54 68 78 74 62 49 38 28 19 12 7
92 89 80 66 61 55 34 19 24 35 44 56 65 61 53 51 52 55 61 67 73 80 84 82 80 84 89 90 92 94 92 89 86 78 63 53 49 47 46 44 39 36 32 28 24 20 18 21 22 20 17 15 13 14 14 13 11 8 13 27 35 34 32 29 26 23 18 16 20 23 23 29 39 49 61 75 84 86 76 61 49 38 28 21 13
98 97 86 70 60 48 28 17 23 30 36 51 64 65 58 53 54 58 62 68 78 85 87 87 88 88 87 84 80 78 75 64 53 49 49 52 53 50 46 43 37 33 31 28 25 20 18 20 22 21 18 17 16 16 15 13 10 8 13 26 34 34 31 27 22 19 16 17 22 25 27 34 42 53 67 76 86 95 87 68 59 52 41 32 24
101 100 89 74 60 42 24 18 22 25 28 41 58 67 65 60 60 63 67 74 83 87 86 86 85 80 73 65 55 48 43 38 36 40 48 53 53 47 42 38 34 30 28 27 24 22 22 23 22 19 17 18 19 18 15 12 10 11 18 31 38 35 30 26 20 17 16 18 24 27 29 35 44 58 74 78 80 92 94 79 69 67 57 43 31
Wind_Speed
7 7 8 8 9 9 10 11 12 12 12 12 12 11 11 11 11 11 10 10 10 10 11 11 12 12 12 12 12 12 12 12 12 11 11 11 11 10 9 8 7 7 7 8 8 9 10 14 17 20 21 20 19 19 20 18 17 16 15 14 13 13 13 14 14 14 14 13 13 12 11 11 10 10 9 8 6 6 6 5 5 5 6 6 6
6 6 6 7 7 8 9 10 11 11 11 11 11 11 11 11 10 10 10 10 10 10 10 10 11 11 12 12 12 12 12 12 12 12 12 12 12 11 10 9 8 7 8 8 8 8 9 12 14 17 18 19 19 20 22 21 20 19 17 16 15 15 14 15 15 15 15 15 14 13 12 12 11 10 9 9 7 6 6 6 5 5 5 6 6
4 4 4 6 7 7 9 9 9 10 10 11 11 11 11 11 11 11 10 10 10 10 10 10 10 10 10 11 11 11 11 11 10 11 11 12 12 13 12 11 9 8 9 9 9 8 9 11 12 13 14 17 20 22 23 23 23 21 20 18 17 17 16 16 16 16 16 16 15 14 13 13 12 12 10 10 9 7 6 6 5 5 5 5 6
3 4 4 5 7 8 9 9 9 10 10 10 10 10 10 11 11 11 11 11 11 11 11 11 11 11 10 10 10 10 10 10 10 10 11 11 11 12 13 12 11 10 10 10 11 11 9 8 10 12 13 16 18 19 20 22 22 21 20 20 19 18 18 17 17 17 17 17 16 15 14 13 13 13 12 11 10 8 7 6 6 5 5 4 5
4 4 5 6 7 8 8 8 9 9 9 9 9 9 10 10 10 10 10 10 11 12 12 13 13 13 12 11 11 11 11 11 11 11 11 11 10 10 10 11 11 10 10 10 11 12 10 7 9 13 15 16 16 15 17 20 21 21 21 21 20 20 20 19 19 18 18 18 17 17 15 14 14 14 13 12 11 10 8 7 6 6 5 4 4
5 5 5 6 7 7 6 7 8 9 8 8 8 9 9 10 10 10 10 10 10 11 12 13 14 14 13 13 13 12 12 12 12 11 11 11 10 10 9 9 9 10 10 10 10 12 12 9 9 12 14 16 16 16 17 19 21 21 22 23 23 23 24 23 21 20 19 19 19 18 17 15 14 14 14 14 13 11 10 9 7 6 6 5 4
5 5 5 5 5 6 6 6 8 8 8 8 9 9 10 10 11 11 11 10 10 10 11 12 13 13 14 14 14 13 12 12 12 12 12 11 10 9 9 9 9 9 9 9 10 11 13 13 10 10 12 14 15 16 18 20 20 21 22 24 25 27 28 26 23 22 21 21 21 19 18 17 16 15 15 15 15 13 12 10 9 8 7 6 5
4 5 5 5 4 5 5 6 7 7 8 8 9 9 10 11 12 12 12 12 11 11 11 11 12 12 13 13 13 13 12 12 12 11 11 11 11 10 9 9 9 9 9 9 10 11 13 14 14 12 11 11 13 15 18 20 20 20 21 23 25 27 28 27 24 23 23 23 22 21 20 19 18 18 17 16 15 15 14 12 11 10 8 8 7
3 4 5 5 5 5 5 6 7 8 8 9 9 10 11 12 13 13 13 12 12 11 11 11 11 12 12 13 13 12 12 12 12 11 11 11 11 11 11 10 10 9 10 10 11 11 12 15 16 16 14 12 11 12 15 18 20 20 20 21 22 24 27 27 25 25 26 25 24 23 23 22 21 20 19 18 17 16 16 14 13 11 10 9 8
4 4 5 6 6 7 8 9 9 9 10 10 11 11 12 13 13 14 14 13 13 11 11 10 11 11 12 13 13 12 11 11 11 11 11 11 11 11 11 12 12 11 11 12 12 12 12 14 16 17 17 16 13 12 13 15 18 20 21 21 22 22 25 27 27 27 27 26 25 25 26 25 24 23 21 20 18 17 17 16 15 13 12 11 10
3 4 6 7 8 8 9 9 9 9 10 11 12 13 13 14 13 14 14 14 13 12 11 10 10 10 11 13 13 13 12 12 11 11 11 11 11 11 11 11 13 13 13 13 13 14 14 14 15 16 17 17 16 14 13 14 16 18 21 22 22 22 23 24 26 28 28 27 27 27 27 26 26 25 23 22 20 19 18 18 17 15 14 13 12
4 5 7 8 9 9 9 9 10 9 10 12 13 13 14 14 14 13 13 14 14 13 12 11 10 9 10 12 12 12 12 12 12 11 11 11 11 11 10 11 12 13 14 15 15 15 15 15 15 16 17 17 17 16 13 13 14 16 19 22 23 23 23 22 24 26 29 30 29 28 28 28 28 26 25 24 22 21 20 19 18 17 16 14 14
8 8 9 10 11 11 11 12 12 11 12 13 14 14 15 14 14 13 13 13 14 14 13 12 11 10 10 11 12 12 12 12 12 11 11 11 11 11 11 11 12 13 14 15 16 16 16 17 16 17 17 18 18 17 15 13 13 14 15 18 21 22 23 23 24 25 28 29 30 29 29 29 29 28 27 26 25 24 22 21 20 19 18 16 15
10 10 11 13 14 14 14 14 15 14 14 14 15 15 15 14 14 13 12 12 13 13 13 13 12 11 10 10 12 12 12 12 12 12 11 11 11 11 11 12 12 13 14 15 16 17 18 18 18 17 18 18 19 19 18 16 14 13 14 15 17 20 22 24 25 26 26 27 28 30 31 31 31 30 29 28 28 27 26 24 22 22 20 18 17
12 12 13 15 16 16 17 16 17 16 16 16 16 16 15 14 13 12 12 12 12 13 13 13 12 11 10 10 11 12 12 12 13 12 12 12 11 11 11 12 12 13 14 15 16 17 18 19 18 18 18 18 19 19 19 18 16 15 14 14 15 17 19 22 25 26 27 26 27 30 33 33 33 32 31 31 30 30 29 27 25 24 23 22 20
15 16 17 18 18 18 19 19 19 18 18 18 18 17 16 14 13 12 12 12 12 12 12 12 12 11 10 9 9 10 11 12 13 12 12 13 13 12 12 12 13 13 14 14 15 16 18 19 20 20 19 19 19 19 19 19 18 17 16 15 15 16 17 19 22 25 27 27 28 30 33 34 35 34 34 33 33 32 31 30 28 27 26 25 23
20 21 22 22 21 20 20 20 20 19 20 20 19 19 18 15 13 12 13 12 12 12 11 11 11 11 11 10 9 9 9 11 12 12 12 12 13 14 14 14 14 14 14 14 14 15 16 18 20 21 21 21 21 21 21 21 20 19 18 18 17 17 18 19 20 22 25 27 29 30 32 34 35 36 36 36 35 34 33 32 31 30 29 28 27
24 25 24 24 22 21 20 20 20 21 21 20 19 19 19 17 15 14 13 13 13 12 11 11 11 12 12 11 11 11 10 11 12 12 12 12 12 13 14 14 15 14 14 15 15 16 17 18 20 21 22 23 23 23 23 22 22 21 21 21 20 19 19 20 21 22 23 26 28 30 31 33 34 36 37 37 37 36 35 34 33 33 32 31 30
25 24 23 22 22 20 19 19 20 21 21 20 19 19 19 18 16 15 14 14 14 13 12 12 12 12 13 13 13 13 13 13 13 13 12 12 12 12 13 14 15 15 15 16 17 17 18 18 19 21 23 24 25 25 25 25 24 24 23 23 23 23 22 22 23 23 24 25 27 29 30 31 33 34 35 37 38 38 37 37 36 35 34 33 32
22 22 21 21 20 19 19 19 20 20 20 19 19 19 18 17 17 16 15 15 15 14 13 13 12 13 13 14 14 15 15 15 15 15 14 13 13 13 13 13 14 16 17 17 18 18 18 19 20 22 24 25 26 26 27 27 27 26 26 26 26 26 25 25 25 25 26 26 27 28 30 31 32 34 35 37 38 39 39 39 38 37 36 36 34
19 19 19 19 19 19 19 19 19 19 19 19 19 19 17 17 17 17 16 16 16 15 14 14 13 14 14 15 15 16 17 18 18 17 16 15 14 14 14 14 14 16 17 18 18 19 20 22 23 24 25 27 27 28 28 29 29 29 29 29 29 29 29 28 27 27 27 28 29 29 30 31 32 34 35 37 39 40 40 41 40 39 39 38 37
18 18 18 19 19 19 19 18 18 18 19 19 19 19 18 17 17 17 17 17 17 17 16 15 15 15 16 16 17 17 18 19 19 19 18 17 16 16 15 16 16 16 18 19 20 21 23 24 26 27 27 28 28 29 29 30 31 31 32 32 31 31 32 32 31 30 30 30 30 31 31 32 33 34 35 38 40 40 41 42 42 42 41 41 39
18 18 18 19 19 20 19 19 19 19 19 19 19 19 19 18 18 18 18 18 18 18 18 17 17 17 17 18 18 19 19 20 20 20 20 19 19 18 18 19 20 20 21 22 23 24 25 26 27 27 28 28 28 29 29 30 31 32 34 34 34 34 34 34 34 34 33 33 33 33 33 33 34 34 35 37 39 41 42 43 43 43 43 42 41
19 20 20 19 20 20 20 20 20 20 20 20 20 19 19 20 19 19 19 19 20 20 20 19 19 19 19 19 20 20 20 21 21 20 20 19 19 19 20 20 21 22 23 25 27 28 29 30 29 28 28 28 28 29 30 31 31 33 34 36 36 37 37 37 36 36 36 36 35 36 35 35 35 36 36 36 38 40 43 44 44 44 43 43 43
20 21 21 21 21 21 21 21 21 21 21 21 21 20 21 21 22 21 21 22 22 22 22 22 22 22 21 21 21 21 22 22 22 21 20 19 18 19 20 21 21 22 24 26 28 30 32 33 33 32 30 29 29 29 30 31 31 32 34 35 36 38 39 40 39 39 39 39 39 38 38 37 37 38 38 38 38 39 41 43 45 45 45 44 44
21 22 22 23 23 23 23 23 23 22 22 22 22 22 23 24 24 24 24 24 24 24 24 24 24 24 24 24 23 23 23 24 24 23 21 20 19 19 21 22 23 24 26 28 30 32 33 33 34 34 34 33 32 31 31 32 32 32 34 35 36 37 38 40 41 42 42 42 42 42 41 40 40 40 41 41 40 40 41 42 44 45 46 46 45
20 22 23 24 25 26 26 25 25 24 23 23 23 24 24 25 26 26 27 27 26 26 26 26 26 26 26 26 26 25 25 25 25 24 22 20 20 21 22 23 25 27 29 30 31 32 34 34 35 34 34 36 36 35 34 34 34 34 34 35 36 36 38 39 41 42 43 44 45 45 45 44 43 42 42 43 43 43 43 43 43 45 46 48 47
22 22 24 26 26 27 27 27 26 26 25 24 24 25 25 26 26 27 28 29 28 28 27 27 27 27 27 27 27 27 26 26 26 25 23 22 22 23 24 25 26 28 30 32 33 34 34 35 36 36 35 36 37 38 38 38 38 37 37 37 37 37 39 40 41 42 43 44 45 46 47 47 47 45 44 45 45 45 46 45 45 45 46 48 49
24 25 26 27 28 28 28 27 28 27 26 26 26 25 26 26 26 28 28 29 29 29 29 29 28 28 28 28 28 27 27 27 26 25 24 23 24 25 26 27 28 29 31 32 33 34 34 36 38 38 37 37 38 39 41 41 41 41 41 41 40 39 40 41 42 43 44 45 45 45 47 48 48 48 47 47 47 47 47 48 48 47 47 48 50
25 27 30 30 30 30 28 27 27 28 28 27 27 27 27 26 26 27 28 29 29 30 31 30 29 29 29 29 29 28 28 28 27 26 25 25 26 27 28 28 29 31 32 32 32 34 35 36 38 39 40 39 39 40 42 43 44 44 45 45 45 44 42 41 42 43 44 45 45 45 46 47 48 48 48 48 48 48 48 48 49 49 49 50 50
27 30 33 33 31 30 30 28 28 29 29 28 28 28 28 28 27 27 27 28 29 30 30 30 29 29 30 30 30 29 29 28 28 27 26 26 27 28 29 30 30 31 32 33 33 35 37 38 39 41 42 41 41 42 43 44 45 46 48 49 48 48 47 44 43 43 43 45 46 46 47 47 48 48 49 49 49 50 50 49 49 49 50 52 52
31 33 35 36 36 34 33 31 30 29 29 29 30 31 31 31 31 30 29 28 28 29 30 30 30 30 30 31 31 30 29 29 28 28 27 27 28 29 30 31 31 32 33 34 35 37 39 41 41 43 43 42 42 43 44 45 46 47 49 51 51 51 50 47 45 43 43 44 45 46 47 48 48 49 49 49 50 51 51 51 50 49 50 52 53
33 35 37 38 39 39 36 33 33 32 32 32 33 34 35 36 35 34 32 30 29 29 29 30 31 31 31 31 32 30 29 29 29 29 29 28 29 30 31 31 32 32 34 36 38 39 40 43 44 45 45 44 44 45 45 46 47 48 50 51 52 53 52 49 46 44 44 44 45 46 47 49 50 50 50 50 50 51 52 52 51 50 49 50 52
37 38 37 38 39 41 39 36 36 35 35 35 37 38 39 39 39 38 36 34 33 32 31 32 32 31 31 32 32 31 30 29 29 30 30 29 30 31 30 30 32 33 34 37 39 40 41 43 45 47 47 46 46 47 47 47 48 49 50 51 51 52 53 52 49 46 44 44 45 45 46 47 50 51 52 52 52 51 52 53 53 52 51 50 50
42 40 35 34 37 40 41 40 40 38 37 38 40 41 42 41 40 39 38 38 37 36 35 34 33 33 32 32 33 33 32 31 30 30 30 30 30 30 29 29 32 34 36 37 39 41 42 43 44 46 48 48 48 49 49 49 49 50 51 51 50 51 52 53 52 49 46 45 45 46 46 46 48 50 52 53 54 53 53 54 55 55 54 52 51
46 42 34 34 39 42 42 41 40 39 37 36 36 38 41 41 40 39 38 38 39 39 38 36 35 34 32 32 34 34 33 32 31 30 30 29 28 27 26 29 32 35 37 37 38 40 42 43 45 46 47 49 50 50 50 50 50 50 51 51 51 52 53 54 55 54 51 48 47 47 47 47 48 48 50 52 53 55 55 55 56 56 56 55 54
42 38 34 36 40 41 41 39 38 38 36 34 34 37 40 40 40 39 39 40 40 40 40 38 37 35 33 32 33 34 34 32 30 30 29 27 26 25 26 29 32 35 36 37 37 38 40 42 44 46 48 50 50 51 51 50 50 51 52 53 53 54 54 54 55 55 53 51 49 49 49 50 50 50 49 49 51 53 55 56 57 58 58 57 56
33 32 34 35 34 35 36 35 31 29 29 29 31 35 39 40 42 43 41 41 42 41 41 40 39 36 33 32 32 33 33 31 29 30 29 27 26 26 27 30 33 34 36 37 37 38 39 41 42 45 49 51 51 52 52 52 51 52 53 54 54 54 53 52 52 53 52 50 50 50 50 50 51 51 50 49 50 50 52 54 56 58 60 60 59
32 33 35 35 34 34 33 30 25 23 25 27 30 36 39 41 43 45 44 42 43 43 41 40 39 38 35 32 32 33 32 30 30 30 31 30 29 29 30 33 34 35 36 37 37 38 40 41 42 45 49 52 53 53 54 53 53 53 54 54 54 53 52 50 50 50 49 49 48 48 48 49 49 50 50 50 50 51 51 52 53 55 58 61 62
37 38 38 36 33 30 29 28 25 27 31 34 37 41 43 44 44 45 46 45 44 43 41 39 39 39 37 34 33 33 32 31 32 32 32 32 31 32 33 35 36 37 37 39 40 41 42 43 45 48 50 53 54 54 54 54 54 54 54 54 53 51 49 48 47 47 46 46 46 45 46 47 47 48 49 49 50 51 52 51 50 51 53 57 60
39 39 40 38 34 31 30 28 27 29 33 37 41 44 46 47 45 44 46 46 45 43 41 39 39 39 38 37 36 35 35 34 34 34 32 32 32 35 36 37 37 37 38 40 43 44 44 46 48 50 51 53 55 55 54 54 54 54 53 53 51 48 47 47 44 43 43 43 43 42 42 43 44 44 45 47 49 50 51 52 51 50 49 52 56
41 42 43 41 38 35 31 29 31 33 36 39 42 43 44 47 46 43 42 43 44 44 42 39 39 39 39 39 40 38 36 37 38 38 36 35 36 38 39 38 39 39 40 42 45 47 47 48 50 51 52 53 54 54 54 54 54 53 52 51 48 46 46 46 42 41 41 41 39 38 37 39 41 42 43 46 48 49 51 52 52 50 48 48 52
46 47 46 44 41 38 36 35 37 38 39 40 41 41 42 45 46 42 39 38 40 41 41 40 41 41 41 43 42 38 35 36 38 39 40 40 41 42 42 42 43 44 45 45 46 48 49 49 50 52 53 53 52 53 53 53 52 51 50 49 47 45 44 44 41 39 40 39 37 35 34 37 40 41 42 45 47 50 52 53 52 51 50 48 48
49 48 47 44 40 38 37 38 40 41 40 39 40 41 42 43 43 40 37 36 36 36 37 40 42 43 43 42 40 37 36 37 38 38 38 40 41 42 43 43 45 46 46 45 46 48 49 49 50 52 53 52 51 51 52 52 50 48 48 47 46 44 42 41 39 38 37 37 36 33 33 36 39 41 41 44 47 51 54 54 52 51 51 48 47
52 51 48 43 39 37 37 38 41 42 40 39 39 40 39 38 37 36 34 34 33 32 33 37 41 42 41 40 39 38 36 37 38 39 38 38 40 43 44 43 44 44 45 46 48 50 49 49 48 50 52 51 50 50 50 49 47 46 46 45 44 42 39 38 38 36 35 35 35 34 33 35 40 43 42 43 47 51 54 56 54 52 51 49 46
54 54 51 46 41 39 39 39 40 41 39 38 38 37 36 34 32 31 29 29 29 29 30 32 34 36 36 37 38 37 35 35 37 38 37 36 38 42 45 46 45 45 46 48 50 51 51 50 49 49 50 50 50 49 48 46 45 45 45 43 40 39 37 36 36 35 34 34 36 36 35 37 42 44 43 43 46 50 53 56 56 55 53 50 47
56 56 55 50 44 41 41 40 40 39 37 35 34 33 32 31 30 28 25 23 24 25 27 29 30 31 32 33 33 33 33 34 36 37 37 37 39 42 44 45 46 47 48 49 51 53 53 52 51 50 50 49 49 49 46 44 44 45 44 41 38 38 36 34 33 33 33 35 36 37 38 39 42 44 42 42 45 48 52 54 55 55 54 52 49
58 57 57 52 46 42 41 40 40 38 35 32 30 30 29 28 28 26 23 21 21 23 25 27 27 28 30 31 33 34 34 35 37 38 39 41 43 43 43 44 46 49 50 50 51 53 53 53 52 51 50 49 49 47 44 43 43 44 42 38 36 37 36 34 32 32 32 33 33 36 40 40 41 42 40 40 43 46 49 51 53 54 53 52 51
58 58 57 53 46 40 39 39 38 36 34 31 29 28 27 26 26 26 25 22 20 21 24 25 26 28 30 32 33 33 35 39 40 41 42 43 43 43 43 45 47 49 51 52 52 52 52 52 52 50 49 48 48 46 44 42 42 43 41 37 35 37 36 34 33 32 31 31 31 37 41 39 39 41 39 37 38 40 44 46 48 50 50 50 50
60 58 56 52 44 38 37 37 36 34 32 31 30 29 28 26 24 22 22 21 19 21 26 29 30 31 33 35 35 35 37 40 41 41 42 43 43 43 44 46 47 49 52 53 54 53 52 51 50 48 47 47 46 44 42 41 41 42 40 37 36 37 36 35 35 33 31 29 32 38 41 38 38 40 39 35 33 33 37 40 42 45 47 46 46
62 58 56 52 44 38 36 35 33 32 31 31 31 30 29 26 22 19 18 19 20 23 29 32 34 34 35 37 38 39 39 39 39 40 41 43 44 45 45 46 48 50 51 53 53 53 52 50 48 46 46 45 44 42 40 39 40 41 40 38 37 38 37 36 36 35 32 30 33 39 41 38 37 39 39 36 30 27 31 35 34 36 40 41 40
Wind_Direction
63 60 61 65 66 67 66 63 59 56 55 53 54 56 56 58 58 59 59 56 52 47 46 46 44 45 45 45 44 43 42 40 35 29 22 13 3 354 344 332 320 310 300 284 266 262 262 255 248 247 250 250 248 248 246 241 237 236 239 244 249 254 258 259 258 255 254 254 253 251 251 252 255 259 262 261 263 270 276 279 282 287 286 273 257
65 57 53 55 56 59 63 64 61 54 48 44 41 41 42 43 47 52 55 55 53 48 42 39 36 34 35 37 38 39 40 39 36 32 27 20 13 6 359 350 340 324 310 302 289 272 262 261 259 257 258 259 259 256 252 246 239 235 233 235 241 244 248 253 257 258 256 254 253 254 255 255 255 255 258 259 260 266 273 278 280 285 290 283 266
54 53 50 51 48 49 51 52 55 51 40 33 30 27 25 25 26 30 34 35 35 32 29 25 23 22 22 24 26 26 25 25 25 23 21 18 15 12 9 3 353 339 326 316 311 300 276 263 265 266 265 263 258 253 252 250 245 238 234 233 235 238 240 244 249 254 257 257 254 252 254 257 260 260 259 259 258 259 266 274 280 284 289 289 273
18 30 33 47 48 42 40 38 43 45 36 27 24 20 17 15 15 16 16 16 15 13 12 10 8 8 10 12 14 13 9 7 7 7 8 9 11 12 12 10 3 352 339 329 325 318 291 268 281 286 281 274 264 256 254 253 249 242 239 237 237 240 241 241 243 247 252 256 257 254 253 256 260 263 263 263 262 260 261 266 275 281 285 289 279
3 14 21 44 52 41 34 31 32 34 29 24 20 14 10 6 6 8 7 7 6 4 2 359 358 357 357 360 3 5 2 358 358 358 358 358 1 5 9 10 7 2 353 343 336 328 309 287 298 298 287 282 277 271 263 257 252 247 244 243 242 244 242 241 240 242 246 250 255 255 254 255 258 263 265 265 264 263 262 262 268 275 279 281 281
2 17 27 41 50 43 32 25 28 25 15 17 19 7 1 357 353 356 358 359 360 359 356 352 351 350 349 349 352 356 355 352 353 354 352 352 352 354 359 2 1 359 359 354 348 339 330 319 309 301 293 290 288 282 273 263 257 254 251 247 246 246 244 242 240 238 241 244 248 251 252 252 254 259 264 266 265 264 262 261 263 268 272 270 271
4 21 34 36 38 36 25 19 26 22 3 6 12 357 349 347 343 344 346 350 353 353 351 347 345 345 343 342 342 344 345 344 345 346 346 346 346 346 347 348 347 347 349 352 351 345 340 337 330 317 303 297 294 285 275 267 262 261 258 251 247 247 246 244 242 240 239 240 243 246 249 249 248 250 254 260 263 263 261 258 258 260 264 263 259
4 19 28 31 29 21 13 14 15 8 358 359 356 344 339 336 334 334 335 338 341 343 343 342 341 340 340 337 334 336 336 335 334 336 336 336 338 340 340 339 336 333 333 336 339 338 337 336 336 332 321 307 296 286 277 269 264 263 262 255 249 248 248 245 244 245 241 239 240 243 247 248 247 246 245 249 255 259 259 257 253 251 253 256 253
8 25 24 19 15 3 4 9 359 350 351 350 341 333 329 326 324 324 324 325 328 332 334 335 337 335 334 331 329 330 330 326 324 326 328 328 329 332 333 332 329 327 324 323 325 327 328 329 331 331 330 327 313 297 284 273 267 264 263 261 256 252 250 246 242 243 242 240 239 240 243 245 246 246 244 242 245 251 255 255 253 248 245 246 247
8 20 15 8 3 359 2 360 349 344 344 341 332 325 320 317 316 314 314 315 316 321 325 326 329 328 327 325 324 327 326 322 319 319 320 321 322 324 327 327 325 323 320 318 318 320 321 322 324 325 326 328 327 316 299 283 273 269 267 266 263 259 254 247 242 242 244 244 242 241 242 243 244 245 245 244 242 244 249 252 252 249 244 240 240
354 6 4 358 351 354 359 347 337 339 337 330 322 317 316 313 310 308 307 308 308 311 313 315 318 320 319 317 318 321 322 318 315 315 315 315 317 320 322 323 322 321 318 316 316 316 317 317 318 318 319 320 321 320 312 297 283 274 270 269 268 266 261 256 249 245 245 246 245 243 243 243 243 245 246 246 245 243 244 248 251 250 246 242 238
324 353 351 339 332 337 341 326 321 326 323 316 313 312 311 308 306 302 300 300 301 303 305 308 311 313 311 309 312 315 314 312 311 311 311 311 313 316 320 321 319 318 316 315 314 314 314 314 313 312 312 312 311 312 312 306 296 285 276 271 269 268 266 264 258 250 246 245 245 244 244 244 245 246 246 247 247 245 244 245 248 249 247 245 242
327 343 336 324 319 320 319 315 314 314 310 308 308 308 306 305 302 298 294 294 296 300 303 306 308 308 304 302 307 310 308 306 306 306 306 307 310 313 316 318 317 315 313 312 311 311 311 311 310 308 306 306 306 306 306 305 303 297 289 280 273 269 266 264 261 255 249 246 246 247 248 247 246 247 246 246 247 246 245 244 246 248 248 245 244
324 330 321 312 311 309 308 308 304 301 302 302 304 305 304 301 299 296 292 291 294 300 303 304 304 302 300 300 303 306 305 304 304 304 301 301 303 307 310 312 311 310 309 309 307 307 307 306 306 305 303 302 302 302 302 304 303 302 299 291 281 274 268 264 262 259 255 251 249 249 250 249 247 246 245 245 245 245 245 244 244 246 247 245 243
314 311 305 303 303 302 301 297 294 296 299 301 301 303 302 298 297 294 290 289 293 299 301 302 300 299 300 301 301 304 306 304 305 304 300 299 299 299 301 302 303 304 303 303 303 304 304 304 304 302 300 299 299 298 298 299 299 300 301 298 291 283 274 267 264 263 261 258 253 250 250 249 247 245 245 246 246 245 244 243 243 243 244 244 243
301 299 298 298 299 298 296 294 295 299 301 300 300 301 299 297 296 292 287 287 289 293 296 296 297 299 302 304 305 309 310 307 306 305 300 298 296 294 295 295 297 300 300 300 300 302 303 304 304 303 301 298 296 295 295 295 294 295 296 295 293 290 283 274 267 264 263 261 258 254 251 249 247 245 247 248 248 246 245 245 243 242 243 243 242
296 297 297 297 298 296 295 296 298 299 298 298 298 300 299 296 294 289 283 281 282 285 287 289 293 299 304 311 315 318 318 314 312 309 302 296 292 290 290 290 292 295 297 299 301 302 303 304 304 303 301 298 296 294 292 291 290 289 289 289 288 288 286 282 276 269 265 263 261 258 254 250 248 247 247 248 248 246 245 246 245 243 243 243 242
295 296 296 296 294 293 295 298 297 295 294 296 297 298 296 293 290 284 278 275 276 278 279 282 289 298 307 315 322 324 325 324 320 316 309 299 291 285 284 284 286 289 292 295 299 302 303 304 304 302 300 297 295 293 291 289 287 285 283 283 284 284 284 283 281 277 271 266 264 261 257 252 250 250 248 248 248 246 245 246 246 245 244 243 243
294 294 294 293 292 292 294 294 292 292 294 295 293 292 290 288 284 281 276 272 272 273 274 277 286 297 307 315 320 322 325 327 325 321 316 307 297 289 283 281 282 284 287 291 296 300 302 304 304 304 303 300 295 291 288 287 285 283 281 278 278 278 279 279 279 278 275 270 266 264 261 256 253 252 250 248 247 247 247 246 246 246 246 245 243
296 296 295 293 292 291 291 290 290 291 293 292 289 287 286 284 280 277 274 271 271 271 272 277 285 293 302 309 314 317 321 324 324 321 318 311 304 297 291 288 287 287 289 292 295 298 302 304 306 307 306 303 298 292 288 285 283 281 280 278 277 275 273 273 273 274 275 272 269 266 263 260 257 254 252 249 247 246 247 246 245 245 246 246 244
298 297 295 294 293 292 291 291 291 291 291 290 288 287 286 282 278 276 273 271 272 273 274 278 283 289 295 301 306 311 315 318 319 318 316 312 308 305 301 296 295 294 294 295 297 299 303 304 306 306 306 304 300 295 290 285 282 279 277 276 276 276 274 272 270 269 269 270 269 266 264 261 259 256 254 252 249 246 247 247 245 244 245 245 244
297 294 292 291 292 293 292 291 290 290 290 289 287 287 287 282 277 275 274 273 273 275 277 280 283 287 291 295 300 304 308 311 313 313 312 312 313 312 310 305 301 299 298 298 298 299 301 303 304 304 304 302 299 296 291 287 283 280 276 273 272 272 273 273 271 269 268 268 267 266 263 260 258 256 254 252 251 248 247 247 246 244 243 244 244
293 292 290 290 291 291 291 289 287 286 286 286 286 287 287 284 277 275 275 275 274 275 277 281 284 286 288 292 295 298 301 304 307 308 307 309 313 315 316 314 310 308 306 304 302 302 301 301 301 301 301 300 298 295 291 287 284 281 278 275 271 268 268 269 270 270 269 268 268 267 264 261 258 256 253 252 251 249 247 246 246 244 243 243 243
290 289 289 289 289 290 290 288 286 284 284 284 284 285 285 282 277 273 273 273 272 274 276 279 282 284 286 288 291 293 296 298 300 301 301 302 307 310 312 313 312 311 311 310 309 309 308 306 304 302 302 301 299 295 290 286 283 281 279 276 274 271 268 266 267 268 268 267 267 266 266 263 260 257 254 252 250 249 248 247 246 245 244 243 243
286 285 285 285 286 288 288 287 286 285 285 284 283 282 280 278 275 271 269 269 270 271 274 277 280 283 284 286 288 291 293 294 295 295 294 295 299 304 307 307 308 309 308 309 310 311 311 311 310 308 307 305 302 298 293 287 283 279 277 276 274 272 270 268 267 267 267 267 267 266 265 264 261 259 257 254 251 250 249 248 247 246 246 244 243
285 286 286 285 284 285 286 287 286 286 285 284 282 279 276 275 273 270 267 267 267 269 272 275 278 282 283 284 285 288 290 292 292 291 291 292 295 299 302 303 304 305 306 306 307 308 309 310 310 311 311 309 306 301 296 290 284 279 276 274 273 271 269 268 268 268 267 267 267 267 265 264 261 259 257 255 253 252 251 249 248 247 246 245 244
282 286 287 286 284 284 284 285 285 284 283 282 281 278 276 275 274 271 268 266 266 267 270 273 277 281 283 284 284 286 288 288 288 288 288 289 292 295 297 298 300 302 303 304 305 305 305 306 307 309 310 308 307 304 300 295 290 284 280 276 273 271 270 269 268 268 268 267 267 267 266 265 263 259 257 254 253 251 251 250 249 248 246 245 244
280 282 283 284 285 283 282 282 281 280 278 278 278 278 277 276 275 272 270 269 269 269 270 272 275 279 281 282 283 285 285 285 285 284 285 287 290 291 293 295 298 301 302 303 302 302 302 303 304 306 306 305 304 303 301 298 295 292 288 283 277 274 272 271 271 270 269 268 267 267 266 265 264 261 258 254 252 250 249 249 249 248 247 245 244
288 287 287 288 288 285 282 280 279 278 276 275 276 277 278 278 276 274 273 273 273 272 272 272 275 278 281 281 282 282 283 283 282 282 284 288 290 290 291 293 295 298 301 301 300 299 300 301 302 303 303 302 301 300 299 297 296 295 293 290 285 280 275 273 272 272 271 270 269 267 266 265 263 261 259 256 252 250 248 248 247 247 246 245 244
294 294 295 296 296 291 285 281 280 279 276 274 273 275 277 279 278 276 275 274 274 273 272 272 275 277 280 281 281 282 282 281 281 282 285 289 291 292 293 294 295 298 300 300 300 299 299 300 301 301 301 300 298 297 295 294 294 294 294 292 290 287 283 278 274 272 271 270 270 268 267 265 264 262 259 257 254 251 249 247 247 246 245 244 244
294 293 295 298 300 295 287 282 280 280 279 277 275 276 277 278 278 277 277 276 275 273 271 270 273 275 278 280 280 280 280 280 280 283 286 289 292 294 295 295 296 299 300 299 299 300 299 299 300 301 299 298 296 294 292 291 290 291 292 292 292 291 289 286 281 277 274 272 271 270 267 265 264 262 260 257 254 252 250 248 247 247 246 244 243
294 290 291 293 294 291 287 284 283 281 280 280 280 281 279 278 277 277 276 276 275 274 272 270 270 272 275 277 277 277 278 279 280 283 286 290 294 295 295 295 295 296 299 298 297 298 300 299 300 300 299 297 295 292 290 289 288 288 289 291 292 292 291 289 286 283 279 276 273 271 269 266 263 261 260 257 254 252 250 250 248 247 246 245 244
289 286 287 288 287 285 284 284 284 280 278 281 284 285 283 279 277 275 273 273 274 274 275 273 270 270 271 273 274 275 277 279 280 282 285 290 294 295 294 293 292 292 295 296 295 294 296 299 299 299 299 297 294 292 290 288 287 287 288 289 291 291 291 290 288 284 281 277 274 272 270 268 265 261 259 257 254 252 250 250 249 248 247 246 245
285 285 288 290 287 285 284 284 285 282 277 279 285 286 285 282 278 274 271 271 272 273 275 275 272 269 269 270 271 273 275 278 280 283 285 289 293 294 293 293 293 292 291 293 294 292 292 295 297 297 297 296 294 292 290 288 287 287 287 288 290 291 291 290 288 285 282 278 275 273 271 270 268 264 260 257 254 252 250 249 249 249 248 248 247
285 288 291 295 295 292 289 287 288 286 279 277 282 285 286 284 281 277 273 271 272 272 273 274 273 269 267 268 270 271 274 277 282 286 287 289 292 293 293 293 293 292 290 290 292 291 291 292 293 294 295 294 292 290 288 287 287 286 287 288 289 289 289 289 288 287 284 281 277 275 274 273 271 268 264 260 256 253 251 249 248 249 249 249 248
280 284 290 298 303 300 294 290 291 291 283 275 281 290 291 286 282 281 277 273 273 273 274 275 274 270 268 268 270 273 275 279 284 287 287 289 292 292 293 294 292 291 291 290 289 290 290 291 291 292 293 292 291 289 288 287 286 286 287 289 289 288 288 288 288 287 285 283 280 278 277 275 272 269 266 263 259 255 252 250 249 248 248 248 248
280 287 299 307 308 302 295 291 291 294 289 279 283 296 296 286 280 279 278 275 274 274 275 276 274 270 269 270 272 274 276 280 283 284 285 287 290 291 294 297 296 294 292 290 289 289 289 290 290 292 292 291 290 289 288 287 287 288 288 289 288 287 287 286 286 286 285 283 281 279 277 274 271 268 264 262 260 257 255 252 249 248 247 248 248
295 300 308 313 316 313 307 302 299 304 304 293 291 299 298 288 280 276 274 274 274 272 272 272 271 269 270 271 273 274 276 278 279 280 280 283 287 291 296 300 301 299 294 291 290 291 291 291 291 291 292 291 290 290 289 288 289 290 290 289 288 288 287 286 285 285 284 283 280 278 276 273 270 267 265 263 261 259 257 254 251 249 247 247 247
316 316 314 312 316 319 319 315 309 312 317 313 306 304 301 293 283 276 272 271 271 271 271 270 268 267 269 270 271 272 274 274 273 274 278 283 289 293 298 304 305 302 299 296 295 296 296 295 292 291 291 291 290 290 290 290 291 291 290 290 290 290 289 287 285 284 283 282 280 278 275 272 269 268 267 265 263 261 258 255 253 250 247 246 245
323 325 324 321 320 321 322 318 309 304 308 311 309 306 302 295 286 278 272 269 269 270 270 269 268 267 267 268 270 271 271 270 269 271 276 283 290 295 298 303 306 304 302 300 300 300 299 296 292 291 291 291 291 291 291 291 292 292 292 292 293 292 291 288 286 285 283 281 280 278 275 273 271 269 268 266 264 263 260 257 254 251 248 246 244
329 331 329 326 324 323 323 322 318 310 307 306 304 302 300 295 288 281 274 269 269 269 268 268 270 269 267 267 268 268 267 268 269 271 275 282 288 292 296 300 303 303 302 302 302 301 296 292 290 290 291 291 291 291 290 291 292 293 294 295 295 294 291 289 287 285 282 280 279 278 276 274 272 270 269 267 265 264 262 259 256 253 250 247 244
330 331 330 326 323 322 323 323 323 319 314 308 303 299 298 294 291 286 277 271 271 270 268 268 270 270 269 267 266 266 266 268 269 269 271 277 282 287 292 298 301 303 302 302 300 295 290 288 289 290 291 291 291 290 290 291 293 294 295 295 295 294 291 289 287 285 282 281 279 278 276 274 272 270 269 268 266 265 263 261 258 256 252 247 244
325 327 328 326 324 323 324 324 323 321 318 313 306 302 300 297 295 291 281 272 273 273 270 268 268 269 269 267 267 268 270 272 273 272 272 276 280 284 289 294 297 300 300 297 293 289 288 289 290 291 291 291 291 290 291 292 294 295 295 294 294 293 291 288 286 284 283 282 280 279 277 275 273 272 272 270 268 266 264 262 260 258 255 249 244
319 322 324 322 321 321 321 322 322 320 319 315 309 305 303 300 298 295 284 273 272 273 271 268 269 269 268 269 272 276 277 276 278 278 277 281 286 287 289 293 295 295 294 290 287 287 288 289 290 291 292 291 290 291 292 294 295 295 294 294 294 293 290 287 285 284 283 282 281 280 277 276 277 276 275 274 272 268 265 263 261 259 257 253 246
315 318 321 319 318 319 319 319 320 318 318 315 311 307 304 302 299 296 287 278 273 273 273 274 276 275 274 278 284 286 285 282 281 280 278 283 290 292 294 297 295 292 289 287 286 287 288 288 288 289 291 291 291 291 293 295 295 294 292 293 294 292 289 287 286 285 284 284 283 281 278 278 280 280 279 278 275 270 266 264 262 259 257 255 250
315 318 321 319 317 317 318 318 318 317 316 314 311 307 304 302 298 291 287 283 278 277 280 283 284 283 285 289 291 290 287 284 283 282 281 283 290 294 296 296 293 289 287 286 286 287 289 289 288 289 289 290 290 291 294 296 295 293 292 294 293 289 288 288 287 286 285 286 285 283 280 280 282 283 283 282 276 270 265 263 262 259 257 255 252
313 315 318 318 315 314 315 316 317 316 314 311 308 305 302 300 294 286 280 279 277 277 282 287 289 289 290 291 291 288 285 282 281 282 284 288 294 294 292 290 289 286 284 284 286 288 289 289 289 290 290 290 290 292 295 296 295 293 294 295 292 289 289 290 288 287 287 287 286 284 283 283 284 285 287 284 277 269 264 261 259 258 256 254 252
310 311 314 315 313 310 311 313 314 314 313 310 305 303 300 296 289 280 272 271 275 277 281 285 286 286 286 285 284 283 281 279 278 280 286 293 296 293 288 286 284 283 283 284 285 287 289 290 290 291 291 290 291 293 295 296 294 293 294 295 292 290 291 291 289 288 287 286 287 287 285 286 289 291 291 287 279 270 263 260 257 255 255 253 250
306 305 308 311 310 307 307 309 312 312 312 311 308 305 301 294 285 278 271 271 276 280 282 284 284 284 286 287 286 284 282 282 282 284 289 292 291 288 285 283 282 282 283 285 286 286 288 290 291 291 292 291 292 294 296 295 293 293 294 294 291 290 292 293 291 289 288 289 291 290 289 292 298 300 297 290 282 273 265 260 257 255 254 252 250
304 302 305 308 307 303 304 306 308 311 312 311 309 306 303 296 287 278 271 268 270 274 278 281 283 284 287 289 290 288 287 288 290 291 289 287 286 285 283 282 282 283 285 286 286 287 288 289 290 291 292 292 293 294 295 295 294 295 296 295 291 291 293 294 292 290 290 293 295 293 293 298 305 308 304 292 281 275 269 263 259 258 256 253 249
303 300 303 306 303 299 300 301 304 308 310 310 309 306 301 295 283 270 264 266 268 271 275 279 282 283 285 288 290 291 292 292 292 290 286 284 283 283 283 283 283 284 285 286 287 288 289 290 290 291 291 291 292 294 294 294 295 296 297 296 294 293 294 294 293 292 292 295 297 295 296 304 313 317 312 296 279 268 265 264 262 259 256 252 247